Location: Central Springs Elementary School at Manly
(43.2859°N, 93.1959°W)
Time: 18:42:46
(UTC+00:00)

UNISAT 6 - Visible Passes

Search period start: 11 December 2025 00:00
Search period end: 21 December 2025 00:00
Orbit: 576 x 640 km, 97.8° (Epoch: 10 December)

Date Brightness Start Highest point End Pass type
(mag) Time Alt. Az. Time Alt. Az. Time Alt. Az.
11 Dec ? 23:03:58 10° N 23:08:00 35° WNW 23:12:01 10° SW visible
12 Dec ? 23:17:46 10° NNW 23:21:26 26° WNW 23:25:06 10° WSW visible
13 Dec ? 23:31:41 10° NNW 23:34:51 20° WNW 23:38:00 10° WSW visible
14 Dec ? 23:45:46 10° NNW 23:48:13 15° WNW 23:50:39 10° W visible
16 Dec ? 00:00:24 10° NW 00:01:33 11° WNW 00:02:40 10° WNW visible
19 Dec ? 23:16:23 10° N 23:20:06 26° WNW 23:23:47 10° SW visible
20 Dec ? 23:30:13 10° NNW 23:33:26 20° WNW 23:36:38 10° WSW visible
